Location: Zagreb
(45.8000°N, 16.0000°E)
Time: 02:21:29
(UTC+02:00)

Transit 2A Rocket - Pass Details

Date: 27 January 2022
Orbit: 592 x 909 km, 66.7° (Epoch: 26 May)

Event Time Altitude Azimuth Distance (km) Brightness Sun altitude
Rises 17:51:37 0° 197° (SSW) 3,466 8.9 -10.1°
Reaches altitude 10° 17:54:07 10° 194° (SSW) 2,556 8.1 -10.6°
Maximum altitude 17:59:59 58° 117° (ESE) 1,051 5.5 -11.5°
Drops below altitude 10° 18:05:56 10° 40° (NE) 2,592 7.3 -12.5°
Enters shadow 18:06:04 - 39° (NE) 2,638 7.3 -12.6°
Sets 18:08:28 0° 36° (NE) 3,519 - -13.0°
